Paso Robles, CA

10:47 AM PDT on July 21, 2017 (GMT -0700)
Paso Robles Municipal

Weather History for KPRB - October, 2014

Change the Weather History Date:

Tuesday, October 7, 2014

  Actual Average Record
Temperature  
Mean Temperature 75 °F 64 °F  
Max Temperature 99 °F 82 °F 104 °F (1996)
Min Temperature 51 °F 46 °F 36 °F (2007)
Degree Days  
Heating Degree Days 0 3  
Month to date heating degree days 0 17  
Since 1 July heating degree days 1 49  
Cooling Degree Days 10 2  
Month to date cooling degree days 64 18  
Year to date cooling degree days 1316 909  
Growing Degree Days 25 (Base 50)    
Moisture  
Dew Point 34 °F    
Average Humidity 33    
Maximum Humidity 60    
Minimum Humidity 6    
Precipitation  
Precipitation 0.00 in 0.02 in 0.30 in (1973)
Month to date precipitation 0.00 0.09  
Year to date precipitation 4.46 9.21  
Since 1 July precipitation T  
Sea Level Pressure  
Sea Level Pressure 29.86 in    
Wind  
Wind Speed 4 mph (WNW)    
Max Wind Speed 21 mph    
Max Gust Speed 25 mph    
Visibility 10 miles    
Events      
T = Trace of Precipitation, MM = Missing Value Source: NWS Daily Summary

Daily Weather History Graph

Daily Weather History Graph

Search for Another Location

Airport or City:

Trip Planner

Search our weather history database for the weather conditions in past years. The results will help you decide how hot, cold, wet, or windy it might be!

Date:

Astronomy

Oct. 07, 2014 Rise Set
Actual Time 7:02 AM PDT 6:37 PM PDT
Civil Twilight 6:36 AM PDT 7:03 PM PDT
Nautical Twilight 6:07 AM PDT 7:32 PM PDT
Astronomical Twilight 5:37 AM PDT 8:02 PM PDT
Moon 6:16 PM PDT (10/7) 6:06 AM PDT (10/7)
Length of Visible Light 12h 26m
Length of Day
11h 35m
Waxing Gibbous, 99% of the Moon is Illuminated
Oct 7
Waxing Gibbous
Oct 8
Full
Oct 15
Last Quarter
Oct 23
New
Oct 30
First Quarter

Hourly Weather History & Observations

Time (PDT) Temp. Dew Point Humidity Pressure Visibility Wind Dir Wind Speed Gust Speed Precip Events Conditions
12:53 AM 60.1 °F 32.0 °F 35% 29.89 in 10.0 mi ESE 5.8 mph - N/A   Clear
1:53 AM 60.1 °F 30.9 °F 33% 29.88 in 10.0 mi Calm Calm - N/A   Clear
2:53 AM 60.1 °F 33.1 °F 36% 29.89 in 10.0 mi Calm Calm - N/A   Clear
3:53 AM 57.0 °F 32.0 °F 39% 29.88 in 10.0 mi Calm Calm - N/A   Clear
4:53 AM 55.0 °F 32.0 °F 42% 29.88 in 10.0 mi Calm Calm - N/A   Clear
5:53 AM 53.1 °F 30.9 °F 43% 29.89 in 10.0 mi Calm Calm - N/A   Clear
6:53 AM 51.1 °F 30.9 °F 46% 29.91 in 10.0 mi Calm Calm - N/A   Clear
7:53 AM 55.0 °F 30.9 °F 40% 29.92 in 10.0 mi Calm Calm - N/A   Clear
8:53 AM 62.1 °F 34.0 °F 35% 29.93 in 10.0 mi Calm Calm - N/A   Clear
9:53 AM 68.0 °F 35.1 °F 30% 29.93 in 10.0 mi Calm Calm - N/A   Clear
10:53 AM 75.9 °F 34.0 °F 22% 29.91 in 10.0 mi Calm Calm - N/A   Clear
11:53 AM 82.9 °F 35.1 °F 18% 29.90 in 10.0 mi Calm Calm - N/A   Clear
12:53 PM 90.0 °F 30.9 °F 12% 29.87 in 10.0 mi Variable 4.6 mph - N/A   Clear
1:53 PM 93.9 °F 30.0 °F 10% 29.83 in 10.0 mi Calm Calm - N/A   Clear
2:53 PM 97.0 °F 24.1 °F 7% 29.81 in 10.0 mi West 6.9 mph - N/A   Clear
3:53 PM 99.0 °F 21.9 °F 6% 29.78 in 10.0 mi NNE 6.9 mph - N/A   Clear
4:53 PM 96.1 °F 30.9 °F 10% 29.78 in 10.0 mi South 11.5 mph - N/A   Clear
5:53 PM 91.0 °F 37.9 °F 15% 29.78 in 10.0 mi SSW 9.2 mph - N/A   Clear
6:53 PM 87.1 °F 32.0 °F 14% 29.80 in 10.0 mi WNW 13.8 mph - N/A   Clear
7:53 PM 80.1 °F 37.0 °F 21% 29.83 in 10.0 mi NW 12.7 mph - N/A   Clear
8:53 PM 75.9 °F 37.9 °F 25% 29.83 in 10.0 mi West 10.4 mph - N/A   Clear
9:53 PM 71.1 °F 45.0 °F 39% 29.86 in 10.0 mi NW 6.9 mph - N/A   Clear
10:53 PM 66.9 °F 48.9 °F 52% 29.86 in 10.0 mi NW 6.9 mph - N/A   Clear
11:53 PM 64.0 °F 50.0 °F 60% 29.87 in 10.0 mi WNW 4.6 mph - N/A   Clear